Time,TemperatureF,DewpointF,PressureIn,WindDirection,WindDirectionDegrees,WindSpeedMPH,WindSpeedGustMPH,Humidity,HourlyPrecipIn,Conditions,Clouds,dailyrainin,SoftwareType,DateUTC
2013-02-22 00:04:00,40.8,36.1,30.13,NE,51,0.0,1.0,83,0.00,,,0.00,meteohub,2013-02-22 08:04:00,
2013-02-22 00:09:00,40.8,36.3,30.13,NE,51,0.0,1.0,84,0.00,,,0.00,meteohub,2013-02-22 08:09:00,
2013-02-22 00:14:00,40.8,36.3,30.13,NE,51,0.0,0.0,84,0.00,,,0.00,meteohub,2013-02-22 08:14:00,
2013-02-22 00:19:00,40.6,36.1,30.13,NE,51,0.0,0.0,84,0.00,,,0.00,meteohub,2013-02-22 08:19:00,
2013-02-22 00:24:00,40.5,36.3,30.13,NE,51,0.0,0.0,85,0.00,,,0.00,meteohub,2013-02-22 08:24:00,
2013-02-22 00:29:00,40.5,36.3,30.13,NE,51,0.0,0.0,85,0.00,,,0.00,meteohub,2013-02-22 08:29:00,
2013-02-22 00:34:00,40.3,36.1,30.13,NE,52,0.0,0.0,85,0.00,,,0.00,meteohub,2013-02-22 08:34:00,
2013-02-22 00:39:00,40.1,36.0,30.13,NE,51,0.0,0.0,85,0.00,,,0.00,meteohub,2013-02-22 08:39:00,
2013-02-22 00:44:00,40.3,36.1,30.13,NE,51,0.0,0.0,85,0.00,,,0.00,meteohub,2013-02-22 08:44:00,
2013-02-22 00:49:00,40.1,36.3,30.13,NE,51,0.0,0.0,86,0.00,,,0.00,meteohub,2013-02-22 08:49:00,
2013-02-22 00:54:00,39.9,35.8,30.13,NE,51,0.0,0.0,85,0.00,,,0.00,meteohub,2013-02-22 08:54:00,
2013-02-22 00:59:00,39.9,36.1,30.13,NE,51,0.0,1.0,86,0.00,,,0.00,meteohub,2013-02-22 08:59:00,
2013-02-22 01:04:00,39.9,36.1,30.13,NE,51,0.0,1.0,86,0.00,,,0.00,meteohub,2013-02-22 09:04:00,
2013-02-22 01:09:00,39.7,36.0,30.14,NE,51,0.0,1.0,86,0.00,,,0.00,meteohub,2013-02-22 09:09:00,
2013-02-22 01:14:00,39.6,35.8,30.14,ENE,69,1.0,1.0,86,0.00,,,0.00,meteohub,2013-02-22 09:14:00,
2013-02-22 01:20:00,39.2,35.4,30.14,ENE,69,0.0,1.0,86,0.00,,,0.00,meteohub,2013-02-22 09:20:00,
2013-02-22 01:25:00,39.0,35.4,30.14,ENE,69,0.0,1.0,87,0.00,,,0.00,meteohub,2013-02-22 09:25:00,
2013-02-22 01:30:00,38.8,35.2,30.14,ENE,70,1.0,1.0,87,0.00,,,0.00,meteohub,2013-02-22 09:30:00,
2013-02-22 01:35:00,38.7,35.1,30.14,ENE,69,0.0,1.0,87,0.00,,,0.00,meteohub,2013-02-22 09:35:00,
2013-02-22 01:40:00,38.7,35.4,30.14,ENE,68,0.0,1.0,88,0.00,,,0.00,meteohub,2013-02-22 09:40:00,
2013-02-22 01:45:00,38.7,35.4,30.14,ENE,69,1.0,1.0,88,0.00,,,0.00,meteohub,2013-02-22 09:45:00,
2013-02-22 01:50:00,38.5,34.9,30.13,ENE,69,1.0,1.0,87,0.00,,,0.00,meteohub,2013-02-22 09:50:00,
2013-02-22 01:55:00,38.5,35.2,30.13,ENE,69,0.0,1.0,88,0.00,,,0.00,meteohub,2013-02-22 09:55:00,
2013-02-22 02:00:00,38.5,35.2,30.13,ENE,69,0.0,1.0,88,0.00,,,0.00,meteohub,2013-02-22 10:00:00,
2013-02-22 02:05:00,38.5,35.2,30.14,NW,326,0.0,1.0,88,0.00,,,0.00,meteohub,2013-02-22 10:05:00,
2013-02-22 02:10:00,38.5,35.2,30.14,NW,323,2.0,2.0,88,0.00,,,0.00,meteohub,2013-02-22 10:10:00,
2013-02-22 02:15:00,38.5,35.2,30.14,NW,325,0.0,2.0,88,0.00,,,0.00,meteohub,2013-02-22 10:15:00,
2013-02-22 02:20:00,38.3,35.1,30.13,NW,326,0.0,2.0,88,0.00,,,0.00,meteohub,2013-02-22 10:20:00,
2013-02-22 02:25:00,38.1,34.9,30.13,West,261,0.0,2.0,88,0.00,,,0.00,meteohub,2013-02-22 10:25:00,
2013-02-22 02:30:00,37.8,34.5,30.13,West,261,0.0,1.0,88,0.00,,,0.00,meteohub,2013-02-22 10:30:00,
2013-02-22 02:35:00,37.6,34.3,30.14,West,261,0.0,1.0,88,0.00,,,0.00,meteohub,2013-02-22 10:35:00,
2013-02-22 02:40:00,37.6,34.7,30.14,West,261,0.0,1.0,89,0.00,,,0.00,meteohub,2013-02-22 10:40:00,
2013-02-22 02:45:00,37.4,34.5,30.14,West,263,0.0,1.0,89,0.00,,,0.00,meteohub,2013-02-22 10:45:00,
2013-02-22 02:50:00,37.6,34.7,30.13,West,263,0.0,1.0,89,0.00,,,0.00,meteohub,2013-02-22 10:50:00,
2013-02-22 02:55:00,37.2,34.3,30.13,West,263,0.0,1.0,89,0.00,,,0.00,meteohub,2013-02-22 10:55:00,
2013-02-22 03:00:00,37.2,34.3,30.13,West,263,0.0,1.0,89,0.00,,,0.00,meteohub,2013-02-22 11:00:00,
2013-02-22 03:05:00,37.2,34.3,30.13,West,263,0.0,1.0,89,0.00,,,0.00,meteohub,2013-02-22 11:05:00,
2013-02-22 03:10:00,37.0,34.2,30.13,West,263,0.0,1.0,89,0.00,,,0.00,meteohub,2013-02-22 11:10:00,
2013-02-22 03:15:00,36.9,34.0,30.13,West,263,0.0,1.0,89,0.00,,,0.00,meteohub,2013-02-22 11:15:00,
2013-02-22 03:20:00,36.7,34.0,30.14,SE,143,1.0,1.0,90,0.00,,,0.00,meteohub,2013-02-22 11:20:00,
2013-02-22 03:25:00,36.7,34.0,30.14,SE,139,0.0,2.0,90,0.00,,,0.00,meteohub,2013-02-22 11:25:00,
2013-02-22 03:31:00,36.3,33.6,30.14,SE,143,0.0,2.0,90,0.00,,,0.00,meteohub,2013-02-22 11:31:00,
2013-02-22 03:36:00,36.1,33.4,30.14,West,275,2.0,2.0,90,0.00,,,0.00,meteohub,2013-02-22 11:36:00,
2013-02-22 03:41:00,36.0,33.3,30.14,West,275,0.0,2.0,90,0.00,,,0.00,meteohub,2013-02-22 11:41:00,
2013-02-22 03:46:00,36.0,33.6,30.14,ENE,63,2.0,2.0,91,0.00,,,0.00,meteohub,2013-02-22 11:46:00,
2013-02-22 03:51:00,36.1,33.8,30.13,East,82,1.0,3.0,91,0.00,,,0.00,meteohub,2013-02-22 11:51:00,
2013-02-22 03:56:00,36.3,33.6,30.13,ENE,78,0.0,3.0,90,0.00,,,0.00,meteohub,2013-02-22 11:56:00,
2013-02-22 04:01:00,36.7,34.0,30.13,East,79,0.0,3.0,90,0.00,,,0.00,meteohub,2013-02-22 12:01:00,
2013-02-22 04:06:00,36.5,33.8,30.13,East,79,0.0,2.0,90,0.00,,,0.00,meteohub,2013-02-22 12:06:00,
2013-02-22 04:11:00,36.3,33.4,30.13,East,82,0.0,1.0,89,0.00,,,0.00,meteohub,2013-02-22 12:11:00,
2013-02-22 04:16:00,36.0,33.1,30.13,East,82,0.0,1.0,89,0.00,,,0.00,meteohub,2013-02-22 12:16:00,
2013-02-22 04:21:00,35.8,33.1,30.14,WNW,291,1.0,2.0,90,0.00,,,0.00,meteohub,2013-02-22 12:21:00,
2013-02-22 04:26:00,35.8,33.1,30.14,NNW,331,1.0,3.0,90,0.00,,,0.00,meteohub,2013-02-22 12:26:00,
2013-02-22 04:31:00,36.0,33.6,30.14,NW,321,1.0,3.0,91,0.00,,,0.00,meteohub,2013-02-22 12:31:00,
2013-02-22 04:36:00,36.0,33.3,30.14,SE,129,2.0,3.0,90,0.00,,,0.00,meteohub,2013-02-22 12:36:00,
2013-02-22 04:41:00,36.0,33.3,30.14,SE,136,0.0,2.0,90,0.00,,,0.00,meteohub,2013-02-22 12:41:00,
2013-02-22 04:46:00,36.0,33.3,30.14,SE,140,0.0,2.0,90,0.00,,,0.00,meteohub,2013-02-22 12:46:00,
2013-02-22 04:51:00,35.8,33.1,30.14,SE,139,0.0,2.0,90,0.00,,,0.00,meteohub,2013-02-22 12:51:00,
2013-02-22 04:56:00,35.6,33.3,30.14,SE,140,0.0,1.0,91,0.00,,,0.00,meteohub,2013-02-22 12:56:00,
2013-02-22 05:01:00,35.4,33.1,30.14,SE,140,0.0,1.0,91,0.00,,,0.00,meteohub,2013-02-22 13:01:00,
2013-02-22 05:06:00,35.2,32.5,30.15,SE,140,0.0,1.0,90,0.00,,,0.00,meteohub,2013-02-22 13:06:00,
2013-02-22 05:11:00,35.1,32.7,30.15,SE,140,0.0,1.0,91,0.00,,,0.00,meteohub,2013-02-22 13:11:00,
2013-02-22 05:16:00,34.9,32.5,30.15,SE,140,0.0,1.0,91,0.00,,,0.00,meteohub,2013-02-22 13:16:00,
2013-02-22 05:21:00,35.1,32.9,30.16,SE,136,0.0,1.0,92,0.00,,,0.00,meteohub,2013-02-22 13:21:00,
2013-02-22 05:26:00,35.1,32.9,30.16,SE,136,0.0,1.0,92,0.00,,,0.00,meteohub,2013-02-22 13:26:00,
2013-02-22 05:31:00,35.1,32.9,30.16,SE,136,0.0,1.0,92,0.00,,,0.00,meteohub,2013-02-22 13:31:00,
2013-02-22 05:36:00,34.9,32.5,30.16,SE,138,1.0,1.0,91,0.00,,,0.00,meteohub,2013-02-22 13:36:00,
2013-02-22 05:41:00,34.7,32.4,30.16,SE,133,0.0,1.0,91,0.00,,,0.00,meteohub,2013-02-22 13:41:00,
2013-02-22 05:47:00,34.5,32.2,30.16,SSE,160,0.0,1.0,91,0.00,,,0.00,meteohub,2013-02-22 13:47:00,
2013-02-22 05:52:00,34.5,32.4,30.16,SSE,162,1.0,1.0,92,0.00,,,0.00,meteohub,2013-02-22 13:52:00,
2013-02-22 05:57:00,34.5,32.4,30.16,SSE,161,0.0,1.0,92,0.00,,,0.00,meteohub,2013-02-22 13:57:00,
2013-02-22 06:02:00,34.5,32.4,30.16,SSE,161,0.0,1.0,92,0.00,,,0.00,meteohub,2013-02-22 14:02:00,
2013-02-22 06:07:00,34.2,32.0,30.16,SSE,162,0.0,1.0,92,0.00,,,0.00,meteohub,2013-02-22 14:07:00,
2013-02-22 06:12:00,34.0,31.8,30.16,SSE,161,0.0,0.0,92,0.00,,,0.00,meteohub,2013-02-22 14:12:00,
2013-02-22 06:17:00,34.0,31.8,30.16,SSE,161,0.0,0.0,92,0.00,,,0.00,meteohub,2013-02-22 14:17:00,
2013-02-22 06:22:00,34.0,32.2,30.17,SSE,161,1.0,0.0,93,0.00,,,0.00,meteohub,2013-02-22 14:22:00,
2013-02-22 06:27:00,34.2,32.4,30.17,SSE,156,0.0,1.0,93,0.00,,,0.00,meteohub,2013-02-22 14:27:00,
2013-02-22 06:32:00,34.0,31.8,30.17,SSE,161,0.0,1.0,92,0.00,,,0.00,meteohub,2013-02-22 14:32:00,
2013-02-22 06:37:00,34.0,31.8,30.16,WNW,302,2.0,2.0,92,0.00,,,0.00,meteohub,2013-02-22 14:37:00,
2013-02-22 06:42:00,34.0,32.2,30.16,NNE,28,0.0,2.0,93,0.00,,,0.00,meteohub,2013-02-22 14:42:00,
2013-02-22 06:47:00,34.0,32.2,30.16,NNE,28,0.0,2.0,93,0.00,,,0.00,meteohub,2013-02-22 14:47:00,
2013-02-22 06:52:00,34.0,32.2,30.17,NNE,28,0.0,2.0,93,0.00,,,0.00,meteohub,2013-02-22 14:52:00,
2013-02-22 06:57:00,34.2,32.4,30.17,NNE,28,0.0,1.0,93,0.00,,,0.00,meteohub,2013-02-22 14:57:00,
2013-02-22 07:02:00,34.3,32.5,30.17,NNE,28,0.0,1.0,93,0.00,,,0.00,meteohub,2013-02-22 15:02:00,
2013-02-22 07:07:00,34.3,32.5,30.17,NNE,28,1.0,1.0,93,0.00,,,0.00,meteohub,2013-02-22 15:07:00,
2013-02-22 07:12:00,34.2,32.4,30.17,NNE,27,0.0,1.0,93,0.00,,,0.00,meteohub,2013-02-22 15:12:00,
2013-02-22 07:18:00,34.2,32.4,30.17,NNE,27,0.0,1.0,93,0.00,,,0.00,meteohub,2013-02-22 15:18:00,
2013-02-22 07:23:00,34.3,32.5,30.18,NNE,27,0.0,1.0,93,0.00,,,0.00,meteohub,2013-02-22 15:23:00,
2013-02-22 07:28:00,34.5,32.7,30.18,NNE,27,0.0,1.0,93,0.00,,,0.00,meteohub,2013-02-22 15:28:00,
2013-02-22 07:33:00,34.7,32.9,30.18,ESE,102,0.0,1.0,93,0.00,,,0.00,meteohub,2013-02-22 15:33:00,
2013-02-22 07:38:00,35.1,33.3,30.18,ESE,102,0.0,1.0,93,0.00,,,0.00,meteohub,2013-02-22 15:38:00,
2013-02-22 07:43:00,35.8,34.0,30.18,South,173,0.0,1.0,93,0.00,,,0.00,meteohub,2013-02-22 15:43:00,
2013-02-22 07:48:00,36.3,34.2,30.18,South,173,0.0,1.0,92,0.00,,,0.00,meteohub,2013-02-22 15:48:00,
2013-02-22 07:53:00,36.9,34.5,30.19,South,173,0.0,1.0,91,0.00,,,0.00,meteohub,2013-02-22 15:53:00,
2013-02-22 07:58:00,37.2,34.5,30.19,South,173,0.0,1.0,90,0.00,,,0.00,meteohub,2013-02-22 15:58:00,
2013-02-22 08:03:00,38.5,35.8,30.19,South,173,0.0,1.0,90,0.00,,,0.00,meteohub,2013-02-22 16:03:00,
2013-02-22 08:08:00,40.5,36.9,30.19,South,173,0.0,0.0,87,0.00,,,0.00,meteohub,2013-02-22 16:08:00,
2013-02-22 08:13:00,41.5,36.7,30.19,South,173,0.0,0.0,83,0.00,,,0.00,meteohub,2013-02-22 16:13:00,
2013-02-22 08:18:00,42.6,37.6,30.19,South,173,0.0,0.0,82,0.00,,,0.00,meteohub,2013-02-22 16:18:00,
2013-02-22 08:23:00,43.5,36.9,30.20,South,175,0.0,0.0,77,0.00,,,0.00,meteohub,2013-02-22 16:23:00,
2013-02-22 08:28:00,44.1,37.4,30.20,SE,144,0.0,1.0,77,0.00,,,0.00,meteohub,2013-02-22 16:28:00,
2013-02-22 08:33:00,44.6,37.2,30.20,SE,144,0.0,1.0,75,0.00,,,0.00,meteohub,2013-02-22 16:33:00,
2013-02-22 08:38:00,44.8,37.4,30.20,ESE,107,1.0,1.0,75,0.00,,,0.00,meteohub,2013-02-22 16:38:00,
2013-02-22 08:43:00,45.0,37.2,30.20,ESE,113,0.0,1.0,74,0.00,,,0.00,meteohub,2013-02-22 16:43:00,
2013-02-22 08:48:00,45.7,37.9,30.20,East,97,1.0,1.0,74,0.00,,,0.00,meteohub,2013-02-22 16:48:00,
2013-02-22 08:53:00,45.7,37.9,30.19,SE,146,2.0,2.0,74,0.00,,,0.00,meteohub,2013-02-22 16:53:00,
2013-02-22 08:58:00,46.2,37.8,30.19,SE,145,2.0,3.0,72,0.00,,,0.00,meteohub,2013-02-22 16:58:00,
2013-02-22 09:03:00,46.8,37.9,30.19,ESE,119,2.0,3.0,71,0.00,,,0.00,meteohub,2013-02-22 17:03:00,
2013-02-22 09:08:00,47.5,38.1,30.19,SE,137,1.0,3.0,70,0.00,,,0.00,meteohub,2013-02-22 17:08:00,
2013-02-22 09:13:00,48.6,38.1,30.19,ESE,113,0.0,3.0,67,0.00,,,0.00,meteohub,2013-02-22 17:13:00,
2013-02-22 09:18:00,49.1,37.4,30.19,ENE,75,1.0,2.0,64,0.00,,,0.00,meteohub,2013-02-22 17:18:00,
2013-02-22 09:23:00,49.5,38.1,30.19,East,98,0.0,2.0,65,0.00,,,0.00,meteohub,2013-02-22 17:23:00,
2013-02-22 09:28:00,50.4,38.7,30.19,ESE,113,1.0,2.0,64,0.00,,,0.00,meteohub,2013-02-22 17:28:00,
2013-02-22 09:33:00,50.5,38.5,30.19,WSW,246,0.0,2.0,63,0.00,,,0.00,meteohub,2013-02-22 17:33:00,
2013-02-22 09:38:00,51.3,38.3,30.19,WSW,246,2.0,2.0,61,0.00,,,0.00,meteohub,2013-02-22 17:38:00,
2013-02-22 09:44:00,51.6,39.0,30.19,South,187,0.0,3.0,62,0.00,,,0.00,meteohub,2013-02-22 17:44:00,
2013-02-22 09:49:00,52.5,39.0,30.19,West,268,1.0,3.0,60,0.00,,,0.00,meteohub,2013-02-22 17:49:00,
2013-02-22 09:54:00,52.9,39.4,30.19,SSW,211,1.0,3.0,60,0.00,,,0.00,meteohub,2013-02-22 17:54:00,
2013-02-22 09:59:00,53.2,40.1,30.19,SSE,157,2.0,3.0,61,0.00,,,0.00,meteohub,2013-02-22 17:59:00,
2013-02-22 10:04:00,54.0,39.9,30.19,SW,233,2.0,3.0,59,0.00,,,0.00,meteohub,2013-02-22 18:04:00,
2013-02-22 10:09:00,54.1,40.1,30.20,SW,222,4.0,4.0,59,0.00,,,0.00,meteohub,2013-02-22 18:09:00,
2013-02-22 10:14:00,54.5,39.6,30.20,SSE,167,0.0,4.0,57,0.00,,,0.00,meteohub,2013-02-22 18:14:00,
2013-02-22 10:19:00,54.9,39.9,30.20,SSW,196,1.0,4.0,57,0.00,,,0.00,meteohub,2013-02-22 18:19:00,
2013-02-22 10:24:00,55.4,39.9,30.20,SSW,192,1.0,4.0,56,0.00,,,0.00,meteohub,2013-02-22 18:24:00,
2013-02-22 10:29:00,55.8,39.9,30.20,West,276,2.0,3.0,55,0.00,,,0.00,meteohub,2013-02-22 18:29:00,
2013-02-22 10:34:00,55.8,40.3,30.20,South,190,0.0,4.0,56,0.00,,,0.00,meteohub,2013-02-22 18:34:00,
2013-02-22 10:39:00,56.7,40.3,30.19,South,179,3.0,4.0,54,0.00,,,0.00,meteohub,2013-02-22 18:39:00,
2013-02-22 10:44:00,57.0,40.5,30.19,South,169,0.0,4.0,54,0.00,,,0.00,meteohub,2013-02-22 18:44:00,
2013-02-22 10:49:00,57.9,40.8,30.19,East,87,1.0,3.0,53,0.00,,,0.00,meteohub,2013-02-22 18:49:00,
2013-02-22 10:54:00,58.6,40.1,30.19,ENE,76,2.0,3.0,50,0.00,,,0.00,meteohub,2013-02-22 18:54:00,
2013-02-22 10:59:00,58.8,39.2,30.19,SSW,202,0.0,3.0,48,0.00,,,0.00,meteohub,2013-02-22 18:59:00,
2013-02-22 11:04:00,59.4,39.7,30.19,West,273,1.0,3.0,48,0.00,,,0.00,meteohub,2013-02-22 19:04:00,
2013-02-22 11:09:00,59.7,38.8,30.20,NW,309,2.0,3.0,46,0.00,,,0.00,meteohub,2013-02-22 19:09:00,
2013-02-22 11:14:00,59.5,37.6,30.20,WNW,288,4.0,4.0,44,0.00,,,0.00,meteohub,2013-02-22 19:14:00,
2013-02-22 11:19:00,59.7,37.8,30.20,WSW,243,3.0,3.0,44,0.00,,,0.00,meteohub,2013-02-22 19:19:00,
2013-02-22 11:24:00,60.4,36.7,30.19,SE,142,1.0,6.0,41,0.00,,,0.00,meteohub,2013-02-22 19:24:00,
2013-02-22 11:29:00,60.6,37.4,30.19,SSE,155,3.0,5.0,42,0.00,,,0.00,meteohub,2013-02-22 19:29:00,
2013-02-22 11:34:00,61.3,37.4,30.19,SSW,200,2.0,7.0,41,0.00,,,0.00,meteohub,2013-02-22 19:34:00,
2013-02-22 11:39:00,61.2,36.7,30.19,SE,144,3.0,7.0,40,0.00,,,0.00,meteohub,2013-02-22 19:39:00,
2013-02-22 11:50:00,60.8,36.9,30.19,SSW,211,1.0,9.0,41,0.00,,,0.00,meteohub,2013-02-22 19:50:00,
2013-02-22 11:55:00,60.4,36.0,30.20,West,276,2.0,9.0,40,0.00,,,0.00,meteohub,2013-02-22 19:55:00,
2013-02-22 12:00:00,60.6,35.6,30.20,NW,323,3.0,10.0,39,0.00,,,0.00,meteohub,2013-02-22 20:00:00,
2013-02-22 12:05:00,61.2,36.7,30.19,SSE,167,4.0,10.0,40,0.00,,,0.00,meteohub,2013-02-22 20:05:00,
2013-02-22 12:10:00,61.2,36.0,30.19,SW,222,3.0,9.0,39,0.00,,,0.00,meteohub,2013-02-22 20:10:00,
2013-02-22 12:15:00,61.0,36.5,30.19,West,261,4.0,11.0,40,0.00,,,0.00,meteohub,2013-02-22 20:15:00,
2013-02-22 12:21:00,61.0,37.8,30.19,SSW,213,5.0,11.0,42,0.00,,,0.00,meteohub,2013-02-22 20:21:00,
2013-02-22 12:26:00,61.3,38.1,30.19,SW,214,4.0,11.0,42,0.00,,,0.00,meteohub,2013-02-22 20:26:00,
2013-02-22 12:31:00,61.2,36.7,30.19,South,178,2.0,11.0,40,0.00,,,0.00,meteohub,2013-02-22 20:31:00,
2013-02-22 12:36:00,61.5,37.6,30.17,WSW,257,3.0,6.0,41,0.00,,,0.00,meteohub,2013-02-22 20:36:00,
2013-02-22 12:41:00,62.1,37.4,30.17,WSW,243,2.0,6.0,40,0.00,,,0.00,meteohub,2013-02-22 20:41:00,
2013-02-22 12:46:00,62.1,37.4,30.17,SSW,198,3.0,6.0,40,0.00,,,0.00,meteohub,2013-02-22 20:46:00,
2013-02-22 12:51:00,62.4,39.0,30.17,SW,221,4.0,5.0,42,0.00,,,0.00,meteohub,2013-02-22 20:51:00,
2013-02-22 12:56:00,62.2,37.6,30.17,South,188,3.0,10.0,40,0.00,,,0.00,meteohub,2013-02-22 20:56:00,
2013-02-22 13:01:00,63.0,37.6,30.17,SSW,205,2.0,10.0,39,0.00,,,0.00,meteohub,2013-02-22 21:01:00,
2013-02-22 13:06:00,63.3,37.9,30.17,SW,221,7.0,8.0,39,0.00,,,0.00,meteohub,2013-02-22 21:06:00,
2013-02-22 13:11:00,63.3,38.7,30.17,SSW,206,2.0,7.0,40,0.00,,,0.00,meteohub,2013-02-22 21:11:00,
2013-02-22 13:16:00,63.0,38.3,30.17,SW,223,6.0,7.0,40,0.00,,,0.00,meteohub,2013-02-22 21:16:00,
2013-02-22 13:21:00,62.8,38.1,30.16,SW,225,10.0,10.0,40,0.00,,,0.00,meteohub,2013-02-22 21:21:00,
2013-02-22 13:26:00,62.4,37.8,30.16,WNW,285,8.0,10.0,40,0.00,,,0.00,meteohub,2013-02-22 21:26:00,
2013-02-22 13:31:00,62.1,38.7,30.16,SW,234,3.0,10.0,42,0.00,,,0.00,meteohub,2013-02-22 21:31:00,
2013-02-22 13:36:00,62.6,37.9,30.15,SSE,161,3.0,10.0,40,0.00,,,0.00,meteohub,2013-02-22 21:36:00,
2013-02-22 13:41:00,62.8,37.4,30.15,SW,233,3.0,11.0,39,0.00,,,0.00,meteohub,2013-02-22 21:41:00,
2013-02-22 13:46:00,63.0,36.3,30.15,SW,217,5.0,11.0,37,0.00,,,0.00,meteohub,2013-02-22 21:46:00,
2013-02-22 13:51:00,63.0,35.6,30.14,SW,225,6.0,8.0,36,0.00,,,0.00,meteohub,2013-02-22 21:51:00,
2013-02-22 13:56:00,63.0,36.3,30.14,SSW,202,3.0,8.0,37,0.00,,,0.00,meteohub,2013-02-22 21:56:00,
2013-02-22 14:01:00,62.8,36.9,30.14,SSW,211,2.0,10.0,38,0.00,,,0.00,meteohub,2013-02-22 22:01:00,
2013-02-22 14:06:00,62.8,37.4,30.14,SSW,192,3.0,10.0,39,0.00,,,0.00,meteohub,2013-02-22 22:06:00,
2013-02-22 14:11:00,62.8,37.4,30.14,SE,134,3.0,11.0,39,0.00,,,0.00,meteohub,2013-02-22 22:11:00,
2013-02-22 14:16:00,63.1,38.5,30.14,South,176,5.0,11.0,40,0.00,,,0.00,meteohub,2013-02-22 22:16:00,
2013-02-22 14:21:00,62.8,38.1,30.13,ESE,115,4.0,11.0,40,0.00,,,0.00,meteohub,2013-02-22 22:21:00,
2013-02-22 14:27:00,62.6,37.2,30.13,WSW,240,3.0,11.0,39,0.00,,,0.00,meteohub,2013-02-22 22:27:00,
2013-02-22 14:32:00,62.4,36.5,30.13,SSW,209,6.0,10.0,38,0.00,,,0.00,meteohub,2013-02-22 22:32:00,
2013-02-22 14:37:00,62.4,37.8,30.13,SW,221,4.0,10.0,40,0.00,,,0.00,meteohub,2013-02-22 22:37:00,
2013-02-22 14:42:00,62.4,38.5,30.13,SSE,150,4.0,10.0,41,0.00,,,0.00,meteohub,2013-02-22 22:42:00,
2013-02-22 14:47:00,62.2,36.3,30.13,WSW,242,6.0,10.0,38,0.00,,,0.00,meteohub,2013-02-22 22:47:00,
2013-02-22 14:52:00,61.9,37.2,30.13,SSW,211,2.0,10.0,40,0.00,,,0.00,meteohub,2013-02-22 22:52:00,
2013-02-22 14:57:00,62.1,38.1,30.13,WSW,253,3.0,9.0,41,0.00,,,0.00,meteohub,2013-02-22 22:57:00,
2013-02-22 15:02:00,61.7,38.3,30.13,SSW,206,5.0,11.0,42,0.00,,,0.00,meteohub,2013-02-22 23:02:00,
2013-02-22 15:07:00,61.7,39.0,30.13,SW,236,4.0,11.0,43,0.00,,,0.00,meteohub,2013-02-22 23:07:00,
2013-02-22 15:12:00,61.5,39.9,30.13,SW,230,5.0,9.0,45,0.00,,,0.00,meteohub,2013-02-22 23:12:00,
2013-02-22 15:17:00,61.3,41.0,30.13,SW,229,3.0,8.0,47,0.00,,,0.00,meteohub,2013-02-22 23:17:00,
2013-02-22 15:22:00,61.5,41.7,30.13,SSW,206,2.0,9.0,48,0.00,,,0.00,meteohub,2013-02-22 23:22:00,
2013-02-22 15:27:00,62.2,41.2,30.13,SW,218,5.0,9.0,46,0.00,,,0.00,meteohub,2013-02-22 23:27:00,
2013-02-22 15:32:00,61.9,41.9,30.13,SSW,200,3.0,9.0,48,0.00,,,0.00,meteohub,2013-02-22 23:32:00,
2013-02-22 15:37:00,61.5,41.7,30.13,SW,226,3.0,8.0,48,0.00,,,0.00,meteohub,2013-02-22 23:37:00,
2013-02-22 15:42:00,61.5,42.3,30.13,SW,215,3.0,9.0,49,0.00,,,0.00,meteohub,2013-02-22 23:42:00,
2013-02-22 15:47:00,61.5,42.3,30.13,West,272,4.0,9.0,49,0.00,,,0.00,meteohub,2013-02-22 23:47:00,
2013-02-22 15:52:00,61.2,42.4,30.13,SSW,213,4.0,7.0,50,0.00,,,0.00,meteohub,2013-02-22 23:52:00,
2013-02-22 15:57:00,61.3,42.6,30.13,WSW,252,0.0,7.0,50,0.00,,,0.00,meteohub,2013-02-22 23:57:00,
2013-02-22 16:02:00,61.7,42.3,30.13,WSW,240,3.0,7.0,49,0.00,,,0.00,meteohub,2013-02-23 00:02:00,
2013-02-22 16:07:00,61.9,42.4,30.12,South,175,2.0,5.0,49,0.00,,,0.00,meteohub,2013-02-23 00:07:00,
2013-02-22 16:12:00,62.4,41.9,30.12,SW,214,3.0,5.0,47,0.00,,,0.00,meteohub,2013-02-23 00:12:00,
2013-02-22 16:17:00,61.9,41.9,30.12,SSW,207,4.0,5.0,48,0.00,,,0.00,meteohub,2013-02-23 00:17:00,
2013-02-22 16:22:00,61.2,41.4,30.12,SW,226,3.0,5.0,48,0.00,,,0.00,meteohub,2013-02-23 00:22:00,
2013-02-22 16:27:00,61.0,42.3,30.12,SW,233,1.0,5.0,50,0.00,,,0.00,meteohub,2013-02-23 00:27:00,
2013-02-22 16:32:00,61.0,42.8,30.12,SW,230,1.0,4.0,51,0.00,,,0.00,meteohub,2013-02-23 00:32:00,
2013-02-22 16:37:00,60.8,43.0,30.12,South,190,1.0,4.0,52,0.00,,,0.00,meteohub,2013-02-23 00:37:00,
2013-02-22 16:43:00,60.4,43.2,30.12,SW,225,0.0,3.0,53,0.00,,,0.00,meteohub,2013-02-23 00:43:00,
2013-02-22 16:48:00,60.3,43.5,30.12,WSW,258,1.0,3.0,54,0.00,,,0.00,meteohub,2013-02-23 00:48:00,
2013-02-22 16:53:00,60.3,44.1,30.11,ESE,119,1.0,3.0,55,0.00,,,0.00,meteohub,2013-02-23 00:53:00,
2013-02-22 16:58:00,60.1,44.4,30.11,SSW,192,4.0,4.0,56,0.00,,,0.00,meteohub,2013-02-23 00:58:00,
2013-02-22 17:03:00,59.7,44.1,30.11,SW,236,1.0,4.0,56,0.00,,,0.00,meteohub,2013-02-23 01:03:00,
2013-02-22 17:08:00,59.5,44.2,30.11,SSW,213,0.0,4.0,57,0.00,,,0.00,meteohub,2013-02-23 01:08:00,
2013-02-22 17:13:00,59.2,44.4,30.11,SW,225,1.0,4.0,58,0.00,,,0.00,meteohub,2013-02-23 01:13:00,
2013-02-22 17:18:00,58.5,44.2,30.11,WSW,257,0.0,4.0,59,0.00,,,0.00,meteohub,2013-02-23 01:18:00,
2013-02-22 17:23:00,57.9,44.1,30.12,SW,225,1.0,3.0,60,0.00,,,0.00,meteohub,2013-02-23 01:23:00,
2013-02-22 17:28:00,57.7,44.4,30.12,SSW,213,1.0,2.0,61,0.00,,,0.00,meteohub,2013-02-23 01:28:00,
2013-02-22 17:33:00,57.4,44.4,30.12,SW,226,3.0,3.0,62,0.00,,,0.00,meteohub,2013-02-23 01:33:00,
2013-02-22 17:38:00,56.8,44.4,30.12,SW,229,1.0,3.0,63,0.00,,,0.00,meteohub,2013-02-23 01:38:00,
2013-02-22 17:43:00,56.3,44.6,30.12,SW,225,3.0,5.0,65,0.00,,,0.00,meteohub,2013-02-23 01:43:00,
2013-02-22 17:48:00,55.8,44.6,30.12,SW,227,4.0,5.0,66,0.00,,,0.00,meteohub,2013-02-23 01:48:00,
2013-02-22 17:53:00,55.4,44.6,30.11,WSW,240,2.0,5.0,67,0.00,,,0.00,meteohub,2013-02-23 01:53:00,
2013-02-22 17:58:00,55.0,44.6,30.11,West,271,1.0,4.0,68,0.00,,,0.00,meteohub,2013-02-23 01:58:00,
2013-02-22 18:03:00,54.9,45.0,30.11,WSW,251,0.0,4.0,69,0.00,,,0.00,meteohub,2013-02-23 02:03:00,
2013-02-22 18:08:00,54.5,45.3,30.12,SW,218,0.0,3.0,71,0.00,,,0.00,meteohub,2013-02-23 02:08:00,
2013-02-22 18:13:00,54.1,45.3,30.12,West,267,1.0,3.0,72,0.00,,,0.00,meteohub,2013-02-23 02:13:00,
2013-02-22 18:18:00,53.8,45.3,30.12,SW,233,1.0,3.0,73,0.00,,,0.00,meteohub,2013-02-23 02:18:00,
2013-02-22 18:23:00,53.4,45.0,30.13,WSW,253,1.0,3.0,73,0.00,,,0.00,meteohub,2013-02-23 02:23:00,
2013-02-22 18:28:00,53.2,45.1,30.13,WSW,254,1.0,3.0,74,0.00,,,0.00,meteohub,2013-02-23 02:28:00,
2013-02-22 18:33:00,52.9,44.8,30.13,SSW,194,0.0,2.0,74,0.00,,,0.00,meteohub,2013-02-23 02:33:00,
2013-02-22 18:38:00,52.7,44.6,30.13,SSW,210,1.0,2.0,74,0.00,,,0.00,meteohub,2013-02-23 02:38:00,
2013-02-22 18:43:00,52.3,44.6,30.13,SW,222,0.0,2.0,75,0.00,,,0.00,meteohub,2013-02-23 02:43:00,
2013-02-22 18:48:00,52.2,44.4,30.13,SW,221,0.0,2.0,75,0.00,,,0.00,meteohub,2013-02-23 02:48:00,
2013-02-22 18:53:00,52.0,44.6,30.14,SW,221,1.0,2.0,76,0.00,,,0.00,meteohub,2013-02-23 02:53:00,
2013-02-22 18:59:00,51.8,44.4,30.14,SE,129,0.0,1.0,76,0.00,,,0.00,meteohub,2013-02-23 02:59:00,
2013-02-22 19:04:00,51.6,44.6,30.14,SE,129,0.0,1.0,77,0.00,,,0.00,meteohub,2013-02-23 03:04:00,
2013-02-22 19:09:00,51.4,44.4,30.14,SSE,155,0.0,1.0,77,0.00,,,0.00,meteohub,2013-02-23 03:09:00,
2013-02-22 19:14:00,51.4,44.4,30.14,SSE,155,1.0,1.0,77,0.00,,,0.00,meteohub,2013-02-23 03:14:00,
2013-02-22 19:19:00,51.3,44.2,30.14,South,176,0.0,1.0,77,0.00,,,0.00,meteohub,2013-02-23 03:19:00,
2013-02-22 19:24:00,51.3,44.6,30.14,South,175,0.0,1.0,78,0.00,,,0.00,meteohub,2013-02-23 03:24:00,
2013-02-22 19:29:00,51.1,44.4,30.14,South,174,0.0,1.0,78,0.00,,,0.00,meteohub,2013-02-23 03:29:00,
2013-02-22 19:34:00,50.9,44.6,30.14,South,177,0.0,1.0,79,0.00,,,0.00,meteohub,2013-02-23 03:34:00,
2013-02-22 19:39:00,50.7,44.4,30.14,West,265,1.0,0.0,79,0.00,,,0.00,meteohub,2013-02-23 03:39:00,
2013-02-22 19:44:00,50.4,44.1,30.14,West,261,0.0,2.0,79,0.00,,,0.00,meteohub,2013-02-23 03:44:00,
2013-02-22 19:49:00,50.4,44.1,30.14,West,261,0.0,2.0,79,0.00,,,0.00,meteohub,2013-02-23 03:49:00,
2013-02-22 19:54:00,50.2,44.2,30.14,West,261,1.0,1.0,80,0.00,,,0.00,meteohub,2013-02-23 03:54:00,
2013-02-22 19:59:00,50.2,44.2,30.14,West,261,0.0,1.0,80,0.00,,,0.00,meteohub,2013-02-23 03:59:00,
2013-02-22 20:05:00,50.0,44.1,30.14,West,261,1.0,3.0,80,0.00,,,0.00,meteohub,2013-02-23 04:05:00,
2013-02-22 20:10:00,49.8,44.2,30.14,West,261,0.0,3.0,81,0.00,,,0.00,meteohub,2013-02-23 04:10:00,
2013-02-22 20:15:00,49.8,44.2,30.14,West,262,1.0,3.0,81,0.00,,,0.00,meteohub,2013-02-23 04:15:00,
2013-02-22 20:20:00,49.6,44.1,30.14,West,264,0.0,4.0,81,0.00,,,0.00,meteohub,2013-02-23 04:20:00,
2013-02-22 20:25:00,49.5,43.9,30.14,West,264,0.0,4.0,81,0.00,,,0.00,meteohub,2013-02-23 04:25:00,
2013-02-22 20:30:00,49.3,43.7,30.14,West,264,0.0,4.0,81,0.00,,,0.00,meteohub,2013-02-23 04:30:00,
2013-02-22 20:35:00,49.1,43.9,30.15,NW,307,0.0,4.0,82,0.00,,,0.00,meteohub,2013-02-23 04:35:00,
2013-02-22 20:40:00,49.1,43.9,30.15,NW,307,1.0,3.0,82,0.00,,,0.00,meteohub,2013-02-23 04:40:00,
2013-02-22 20:45:00,48.9,43.7,30.15,WNW,301,1.0,3.0,82,0.00,,,0.00,meteohub,2013-02-23 04:45:00,
2013-02-22 20:50:00,48.6,43.3,30.16,WNW,294,1.0,2.0,82,0.00,,,0.00,meteohub,2013-02-23 04:50:00,
2013-02-22 20:55:00,48.2,43.3,30.16,WNW,294,0.0,3.0,83,0.00,,,0.00,meteohub,2013-02-23 04:55:00,
2013-02-22 21:00:00,48.0,43.3,30.16,WNW,288,1.0,5.0,84,0.00,,,0.00,meteohub,2013-02-23 05:00:00,
2013-02-22 21:03:00,47.8,43.2,30.16,SW,218,0.0,5.0,84,0.00,,,0.00,meteohub,2013-02-23 05:03:00,
2013-02-22 21:04:00,47.8,43.2,30.16,SW,219,0.0,5.0,84,0.00,,,0.00,meteohub,2013-02-23 05:04:00,
2013-02-22 21:09:00,47.7,43.0,30.16,SW,218,0.0,5.0,84,0.00,,,0.00,meteohub,2013-02-23 05:09:00,
2013-02-22 21:14:00,47.5,42.8,30.16,SW,218,0.0,5.0,84,0.00,,,0.00,meteohub,2013-02-23 05:14:00,
2013-02-22 21:19:00,47.3,43.0,30.16,SW,218,0.0,4.0,85,0.00,,,0.00,meteohub,2013-02-23 05:19:00,
2013-02-22 21:24:00,47.3,43.0,30.16,SW,218,1.0,3.0,85,0.00,,,0.00,meteohub,2013-02-23 05:24:00,
2013-02-22 21:29:00,47.3,42.8,30.16,SW,218,0.0,3.0,84,0.00,,,0.00,meteohub,2013-02-23 05:29:00,
2013-02-22 21:34:00,47.1,42.8,30.16,SW,219,0.0,3.0,85,0.00,,,0.00,meteohub,2013-02-23 05:34:00,
2013-02-22 21:40:00,47.5,43.5,30.17,WSW,244,0.0,3.0,86,0.00,,,0.00,meteohub,2013-02-23 05:40:00,
2013-02-22 21:45:00,47.7,43.7,30.17,WSW,244,0.0,3.0,86,0.00,,,0.00,meteohub,2013-02-23 05:45:00,
2013-02-22 21:50:00,47.7,43.7,30.17,WSW,244,0.0,3.0,86,0.00,,,0.00,meteohub,2013-02-23 05:50:00,
2013-02-22 21:55:00,47.7,43.3,30.17,WSW,244,0.0,2.0,85,0.00,,,0.00,meteohub,2013-02-23 05:55:00,
2013-02-22 22:00:00,47.5,43.2,30.17,WSW,244,0.0,2.0,85,0.00,,,0.00,meteohub,2013-02-23 06:00:00,
2013-02-22 22:05:00,47.1,43.2,30.17,WSW,244,0.0,2.0,86,0.00,,,0.00,meteohub,2013-02-23 06:05:00,
2013-02-22 22:10:00,47.1,43.5,30.17,WSW,244,1.0,2.0,87,0.00,,,0.00,meteohub,2013-02-23 06:10:00,
2013-02-22 22:15:00,47.1,43.5,30.17,WSW,244,0.0,2.0,87,0.00,,,0.00,meteohub,2013-02-23 06:15:00,
2013-02-22 22:22:00,47.1,43.5,30.17,WSW,242,0.0,1.0,87,0.00,,,0.00,meteohub,2013-02-23 06:22:00,
2013-02-22 22:27:00,47.1,43.2,30.17,WSW,242,0.0,1.0,86,0.00,,,0.00,meteohub,2013-02-23 06:27:00,
2013-02-22 22:32:00,46.8,42.8,30.17,WSW,242,0.0,1.0,86,0.00,,,0.00,meteohub,2013-02-23 06:32:00,
2013-02-22 22:37:00,46.8,43.2,30.17,WSW,242,0.0,1.0,87,0.00,,,0.00,meteohub,2013-02-23 06:37:00,
2013-02-22 22:42:00,46.8,43.2,30.17,ESE,121,1.0,1.0,87,0.00,,,0.00,meteohub,2013-02-23 06:42:00,
2013-02-22 22:47:00,46.8,43.2,30.17,ESE,108,1.0,1.0,87,0.00,,,0.00,meteohub,2013-02-23 06:47:00,
2013-02-22 22:52:00,46.8,43.2,30.18,ESE,107,1.0,1.0,87,0.00,,,0.00,meteohub,2013-02-23 06:52:00,
2013-02-22 22:58:00,46.9,43.3,30.18,ESE,113,3.0,0.0,87,0.00,,,0.00,meteohub,2013-02-23 06:58:00,
2013-02-22 23:03:00,46.9,43.3,30.18,SE,136,0.0,2.0,87,0.00,,,0.00,meteohub,2013-02-23 07:03:00,
2013-02-22 23:08:00,46.9,43.3,30.18,SE,136,0.0,2.0,87,0.00,,,0.00,meteohub,2013-02-23 07:08:00,
2013-02-22 23:13:00,46.9,43.3,30.18,SE,136,0.0,1.0,87,0.00,,,0.00,meteohub,2013-02-23 07:13:00,
2013-02-22 23:18:00,46.8,43.2,30.18,SE,136,0.0,1.0,87,0.00,,,0.00,meteohub,2013-02-23 07:18:00,
2013-02-22 23:24:00,46.4,42.8,30.17,SE,136,0.0,1.0,87,0.00,,,0.00,meteohub,2013-02-23 07:24:00,
2013-02-22 23:29:00,46.0,42.4,30.17,SE,136,0.0,1.0,87,0.00,,,0.00,meteohub,2013-02-23 07:29:00,
2013-02-22 23:34:00,46.0,42.6,30.17,SE,136,0.0,2.0,88,0.00,,,0.00,meteohub,2013-02-23 07:34:00,
2013-02-22 23:39:00,45.7,42.3,30.16,SE,136,0.0,2.0,88,0.00,,,0.00,meteohub,2013-02-23 07:39:00,
2013-02-22 23:44:00,45.5,42.1,30.16,SE,136,0.0,2.0,88,0.00,,,0.00,meteohub,2013-02-23 07:44:00,
2013-02-22 23:49:00,45.3,41.9,30.16,SE,136,0.0,1.0,88,0.00,,,0.00,meteohub,2013-02-23 07:49:00,
2013-02-22 23:56:00,45.1,41.7,30.16,SE,136,0.0,1.0,88,0.00,,,0.00,meteohub,2013-02-23 07:56:00,